Overview Statistics Trail Chart Weather Telemetry Raw packets
 

This is the latest recevied weather packets stored in our database for station/object IW1CBG-3. If no packets are shown the sender has not sent any weather packets the latest 10 day(s).

<< 1 2 3 4 5 >>
Time Temp. Humidity Pressure Rain* Wind** Luminosity Snow
1788665779 15.56° C 97% 1032.7 hPa 0 mm - - -
1788665179 15.56° C 97% 1032.2 hPa 0 mm - - -
1788664579 15.56° C 97% 1032.6 hPa 0 mm - - -
1788663979 16.11° C 97% 1032.5 hPa 0 mm - - -
1788663378 15.56° C 97% 1032.9 hPa 0 mm - - -
1788662778 16.11° C 97% 1032.4 hPa 0 mm - - -
1788662178 16.11° C 97% 1032.4 hPa 0 mm - - -
1788661578 16.11° C 97% 1032.3 hPa 0 mm - - -
1788660978 16.11° C 97% 1032.4 hPa 0 mm - - -
1788660379 16.11° C 97% 1032.4 hPa 0 mm - - -
1788659779 16.11° C 97% 1032.2 hPa 0 mm - - -
1788659178 16.67° C 97% 1032.3 hPa 0 mm - - -
1788658592 16.67° C 97% 1032.1 hPa 0 mm - - -
1788657978 16.67° C 97% 1032.1 hPa 0 mm - - -
1788657378 16.67° C 96% 1032 hPa 0 mm - - -
1788656778 16.67° C 96% 1031.7 hPa 0 mm - - -
1788656179 16.67° C 96% 1031.7 hPa 0 mm - - -
1788655578 16.67° C 97% 1031.8 hPa 0 mm - - -
1788654977 16.67° C 96% 1032.1 hPa 0 mm - - -
1788654377 16.67° C 96% 1032.1 hPa 0 mm - - -
1788653777 17.22° C 96% 1032.1 hPa 0 mm - - -
1788653179 16.67° C 96% 1032.1 hPa 0 mm - - -
1788652578 17.22° C 96% 1032.2 hPa 0 mm - - -
1788651977 17.22° C 96% 1031.7 hPa 0 mm - - -
1788651378 17.22° C 96% 1031.7 hPa 0 mm - - -

* Rain latest hour (hover to see other rain measurements)
** Current wind speed in m/s (hover to see current wind gust speed)